EW9366 Weather Reports


Display with metric or nautical units.
time (UTC)temp
F
wind
direction
speed
MPH
gust
MPH
rain 1hr
in
rain 24hr
in
rain mn
in
humidity
%
barometer
mb
20260506173300 56 56 1.0 3.0 0.00 0.02 0.00 70 1017.9
20260506172732 55 89 2.0 5.0 0.00 0.02 0.00 69 1017.8
20260506172232 55 138 3.0 7.0 0.00 0.02 0.00 71 1017.7
20260506171729 55 85 3.0 7.0 0.00 0.02 0.00 69 1017.8
20260506171201 54 52 2.0 6.0 0.00 0.02 0.00 70 1017.8
20260506170701 55 96 1.0 6.0 0.00 0.02 0.00 70 1017.9
20260506170135 54 128 2.0 5.0 0.00 0.02 0.00 73 1017.8
20260506165634 53 86 3.0 9.0 0.00 0.02 0.00 72 1017.8
20260506165552 53 108 3.0 9.0 0.00 0.02 0.00 72 1017.7
20260506164543 53 69 3.0 9.0 0.00 0.02 0.00 72 1017.4
20260506164457 53 78 3.0 9.0 0.00 0.02 0.00 72 1017.3
20260506163510 53 20 3.0 8.0 0.00 0.02 0.00 72 1017.3
20260506162942 53 212 4.0 8.0 0.00 0.02 0.00 73 1017.0
20260506162416 53 98 4.0 11.0 0.00 0.02 0.00 71 1017.0
20260506161851 53 41 5.0 11.0 0.00 0.02 0.00 72 1016.7
20260506161812 53 66 6.0 13.0 0.00 0.02 0.00 73 1016.7
20260506160821 53 42 5.0 12.0 0.00 0.02 0.00 73 1016.6
20260506160259 53 65 4.0 9.0 0.00 0.02 0.00 74 1016.7
20260506160244 52 23 5.0 11.0 0.00 0.02 0.00 76 1016.6
20260506155241 52 49 5.0 11.0 0.00 0.02 0.00 76 1016.5
20260506155223 52 70 4.0 10.0 0.00 0.02 0.00 76 1016.6
20260506154212 51 25 4.0 10.0 0.00 0.02 0.00 78 1016.5
20260506154150 51 72 4.0 9.0 0.00 0.02 0.00 77 1016.3
20260506153631 51 167 4.0 8.0 0.00 0.02 0.00 78 1016.3
20260506152615 51 20 4.0 10.0 0.00 0.02 0.00 77 1016.4
20260506152113 50 134 4.0 10.0 0.00 0.02 0.00 77 1016.5
20260506151604 50 44 4.0 10.0 0.00 0.02 0.00 77 1016.5
20260506151549 50 70 4.0 10.0 0.00 0.02 0.00 78 1016.5
20260506150602 50 55 5.0 9.0 0.00 0.02 0.00 77 1016.7
20260506150057 50 26 5.0 9.0 0.00 0.02 0.00 77 1016.6
20260506145533 50 130 5.0 10.0 0.00 0.02 0.00 79 1016.2
20260506145006 50 58 5.0 10.0 0.00 0.02 0.00 78 1016.2
20260506144438 50 49 5.0 10.0 0.00 0.02 0.00 79 1016.5
20260506143912 50 18 5.0 10.0 0.00 0.02 0.00 79 1016.2
20260506143410 50 107 4.0 9.0 0.00 0.02 0.00 78 1016.2
20260506143345 50 33 3.0 9.0 0.00 0.02 0.00 78 1016.3
20260506142344 50 61 3.0 9.0 0.00 0.02 0.00 80 1016.1
20260506141847 50 97 4.0 10.0 0.00 0.02 0.00 81 1015.9
20260506141323 49 60 6.0 14.0 0.00 0.02 0.00 81 1015.9
20260506140815 49 79 4.0 14.0 0.00 0.02 0.00 80 1016.1
20260506140313 49 27 4.0 10.0 0.00 0.02 0.00 82 1016.2
20260506135745 49 143 5.0 13.0 0.00 0.02 0.00 82 1016.0
20260506135247 49 34 4.0 13.0 0.00 0.02 0.00 82 1016.0
20260506134726 49 53 4.0 8.0 0.00 0.02 0.00 83 1016.4
20260506134227 48 119 4.0 11.0 0.00 0.02 0.00 83 1016.4
20260506133725 48 41 4.0 11.0 0.00 0.02 0.00 83 1016.2
20260506133222 48 82 4.0 9.0 0.00 0.02 0.00 84 1016.3
20260506132652 48 160 4.0 10.0 0.00 0.02 0.00 84 1016.2
20260506132154 47 88 4.0 12.0 0.00 0.02 0.00 85 1015.9
20260506131650 47 55 4.0 12.0 0.00 0.02 0.00 85 1016.0
20260506131152 47 21 3.0 10.0 0.00 0.02 0.00 86 1016.1
20260506130649 47 118 4.0 10.0 0.00 0.02 0.00 86 1016.1
20260506130152 47 46 4.0 9.0 0.00 0.02 0.00 86 1016.0
20260506130116 47 93 3.0 9.0 0.00 0.02 0.00 87 1016.0
20260506125124 47 44 3.0 10.0 0.00 0.02 0.00 87 1016.0
20260506124609 47 85 4.0 10.0 0.00 0.02 0.00 87 1015.7
20260506124113 47 75 4.0 12.0 0.00 0.02 0.00 87 1015.8
20260506123548 47 56 3.0 12.0 0.00 0.02 0.00 87 1015.8
20260506123046 46 36 3.0 11.0 0.00 0.02 0.00 87 1015.9
20260506122545 46 78 3.0 11.0 0.00 0.02 0.00 87 1015.7
20260506122046 46 97 2.0 11.0 0.00 0.02 0.00 87 1015.6
20260506121545 46 89 2.0 4.0 0.00 0.02 0.00 87 1015.4
20260506121031 46 57 2.0 7.0 0.00 0.02 0.00 87 1015.4
20260506120502 46 85 2.0 7.0 0.00 0.02 0.00 87 1015.3
20260506120003 46 103 2.0 7.0 0.00 0.02 0.00 87 1015.3
20260506115502 46 53 2.0 7.0 0.00 0.02 0.00 87 1015.1
20260506115002 46 53 3.0 7.0 0.00 0.02 0.00 87 1015.1
20260506114456 46 54 3.0 7.0 0.00 0.02 0.00 87 1015.1
20260506113957 46 16 2.0 7.0 0.00 0.02 0.00 87 1015.2
20260506113459 46 250 2.0 7.0 0.00 0.02 0.00 86 1015.3
20260506112957 46 162 1.0 7.0 0.00 0.02 0.00 86 1015.2
20260506112438 46 139 2.0 7.0 0.00 0.02 0.00 86 1015.0
20260506111919 46 169 2.0 5.0 0.00 0.02 0.00 85 1015.0
20260506111839 46 98 2.0 8.0 0.00 0.02 0.00 85 1015.0
20260506110833 46 214 2.0 8.0 0.00 0.02 0.00 85 1014.8
20260506110311 46 157 1.0 4.0 0.00 0.02 0.00 85 1014.6
20260506105748 46 193 1.0 4.0 0.00 0.02 0.00 85 1014.6
20260506105249 46 91 1.0 6.0 0.00 0.02 0.00 85 1014.5
20260506104729 46 78 2.0 8.0 0.00 0.02 0.00 85 1014.3
20260506104706 46 153 2.0 8.0 0.00 0.02 0.00 85 1013.9
20260506103709 47 206 2.0 8.0 0.00 0.02 0.00 85 1013.8
20260506103204 46 108 2.0 8.0 0.00 0.02 0.00 85 1013.7
20260506102703 46 108 1.0 6.0 0.00 0.02 0.00 86 1013.7
20260506102652 47 22 2.0 6.0 0.00 0.02 0.00 86 1013.4
20260506101704 46 68 2.0 6.0 0.00 0.02 0.00 86 1013.4
20260506101654 47 103 2.0 6.0 0.00 0.02 0.00 86 1013.3
20260506100639 46 25 2.0 9.0 0.00 0.02 0.00 86 1013.1
20260506100631 46 20 2.0 6.0 0.00 0.02 0.00 86 1012.9
20260506095638 47 88 2.0 5.0 0.00 0.02 0.00 86 1012.7
20260506095121 47 358 2.0 5.0 0.00 0.02 0.00 87 1012.7
20260506094622 47 82 3.0 11.0 0.00 0.02 0.00 87 1012.6
20260506094059 47 41 4.0 11.0 0.00 0.02 0.00 86 1012.4
20260506093557 47 11 4.0 8.0 0.00 0.02 0.00 86 1012.3
20260506093042 47 55 4.0 12.0 0.00 0.02 0.00 86 1012.1
20260506092519 47 47 4.0 12.0 0.00 0.03 0.00 86 1012.1
20260506092020 47 15 4.0 10.0 0.00 0.03 0.00 86 1012.2
20260506091521 47 42 3.0 10.0 0.00 0.04 0.00 86 1012.2
20260506091017 47 55 3.0 10.0 0.00 0.04 0.00 86 1012.3
20260506090514 47 359 2.0 8.0 0.00 0.04 0.00 86 1012.4
20260506090013 47 12 3.0 8.0 0.00 0.04 0.00 86 1012.3
20260506085449 47 26 3.0 8.0 0.00 0.05 0.00 86 1012.3
20260506084941 47 41 3.0 8.0 0.00 0.06 0.00 86 1012.4
20260506084420 47 108 3.0 8.0 0.00 0.07 0.00 86 1012.3
20260506083913 47 54 4.0 8.0 0.00 0.08 0.00 86 1012.0
20260506083413 47 89 4.0 8.0 0.00 0.08 0.00 86 1012.1
20260506082915 47 38 3.0 11.0 0.00 0.10 0.00 86 1012.3
20260506082415 46 14 3.0 11.0 0.00 0.11 0.00 87 1012.3
20260506081911 46 128 3.0 7.0 0.00 0.18 0.00 87 1012.1
20260506081410 46 51 3.0 8.0 0.00 0.23 0.00 88 1012.0
20260506080910 46 21 3.0 8.0 0.00 0.25 0.00 87 1012.0
20260506080411 46 53 3.0 8.0 0.00 0.28 0.00 88 1012.0
20260506073308 46 99 4.0 10.0 0.00 0.53 0.00 90 1011.4
20260506072742 46 44 2.0 7.0 0.00 0.59 0.00 90 1011.6
20260506072219 46 155 3.0 11.0 0.00 0.64 0.00 91 1011.8
20260506072151 46 20 4.0 11.0 0.00 0.66 0.00 91 1011.5
20260506071139 46 47 4.0 9.0 0.00 0.69 0.00 92 1011.6
20260506070641 46 69 5.0 15.0 0.00 0.75 0.00 92 1011.8
20260506070137 46 62 5.0 15.0 0.00 0.76 0.00 92 1011.4
20260506062515 46 313 5.0 12.0 0.00 1.02 0.00 93 1012.1
20260506062018 46 71 5.0 12.0 0.00 1.03 0.00 93 1012.2
20260506061511 46 13 4.0 12.0 0.00 1.04 0.00 94 1012.2
20260506061012 46 49 5.0 10.0 0.00 1.04 0.00 94 1012.1
20260506060506 46 141 5.0 10.0 0.00 1.05 0.00 94 1012.1
20260506051248 46 38 2.0 6.0 0.00 1.06 0.00 93 1012.2
20260506050723 46 40 3.0 9.0 0.00 1.06 0.00 92 1012.0
20260506050215 46 70 3.0 9.0 0.00 1.06 0.00 92 1011.9
20260506044641 47 81 4.0 8.0 0.00 1.06 1.06 91 1011.9
20260506044626 47 133 4.0 9.0 0.00 1.06 1.06 91 1011.6
20260506043634 47 115 5.0 10.0 0.00 1.06 1.06 91 1011.6
20260506043107 47 26 5.0 10.0 0.00 1.06 1.06 91 1011.4
20260506042605 47 66 5.0 10.0 0.00 1.06 1.06 91 1011.4
20260506042035 47 331 5.0 15.0 0.00 1.06 1.06 92 1011.6
20260506041534 47 269 5.0 15.0 0.00 1.06 1.06 92 1011.8
20260506041036 47 93 4.0 11.0 0.00 1.06 1.06 92 1011.4
20260506040957 47 23 4.0 11.0 0.00 1.06 1.06 92 1011.2
20260506040005 47 56 4.0 13.0 0.00 1.06 1.06 93 1011.1
20260506035437 47 43 5.0 13.0 0.00 1.06 1.06 93 1011.2
20260506034934 47 86 5.0 12.0 0.00 1.06 1.06 93 1011.3
20260506034407 47 53 4.0 8.0 0.00 1.06 1.06 93 1010.8
20260506033903 47 53 3.0 10.0 0.00 1.06 1.06 93 1010.7
20260506033400 47 238 3.0 10.0 0.00 1.06 1.06 93 1010.7
20260506032853 47 26 3.0 7.0 0.00 1.06 1.06 93 1010.7
20260506032351 47 48 3.0 7.0 0.00 1.06 1.06 93 1010.7
20260506031824 47 62 3.0 7.0 0.00 1.06 1.06 93 1010.4
20260506031747 47 58 4.0 9.0 0.00 1.06 1.06 93 1010.3
20260506030731 47 29 4.0 9.0 0.00 1.06 1.06 93 1010.0
20260506030228 47 63 4.0 9.0 0.00 1.06 1.06 93 1010.1
20260506025724 47 96 3.0 8.0 0.00 1.06 1.06 93 1010.0
20260506025221 47 105 2.0 8.0 0.00 1.06 1.06 93 1009.9
20260506024652 47 62 3.0 7.0 0.00 1.06 1.06 93 1010.0
20260506024150 47 134 4.0 9.0 0.00 1.06 1.06 93 1009.7
20260506023622 47 21 4.0 10.0 0.00 1.06 1.06 93 1009.7
20260506023118 47 86 3.0 10.0 0.00 1.06 1.06 93 1009.5
20260506022616 47 42 3.0 9.0 0.00 1.06 1.06 92 1009.3
20260506022113 47 31 3.0 9.0 0.00 1.06 1.06 92 1009.3
20260506021552 47 63 3.0 10.0 0.00 1.06 1.06 92 1009.3
20260506021053 47 23 3.0 10.0 0.00 1.06 1.06 92 1009.1
20260506020550 47 84 4.0 10.0 0.00 1.06 1.06 92 1009.2
20260506020053 47 7 4.0 10.0 0.00 1.06 1.06 92 1009.2
20260506020029 47 139 4.0 9.0 0.00 1.06 1.06 92 1009.3
20260506015535 47 84 5.0 13.0 0.00 1.06 1.06 92 1009.2
20260506014517 47 35 4.0 13.0 0.00 1.06 1.06 92 1009.4
20260506014457 47 58 3.0 11.0 0.00 1.06 1.06 92 1009.5
20260506013513 47 36 2.0 11.0 0.00 1.06 1.06 92 1009.6
20260506013011 48 65 2.0 6.0 0.00 1.06 1.06 92 1009.8
20260506012514 48 92 3.0 9.0 0.00 1.06 1.06 92 1009.5
20260506012010 47 57 4.0 9.0 0.00 1.06 1.06 92 1009.2
20260506011955 47 47 3.0 7.0 0.00 1.06 1.06 92 1008.6
20260506010946 47 40 3.0 9.0 0.00 1.06 1.06 92 1008.7
20260506010924 47 72 4.0 11.0 0.00 1.06 1.06 92 1008.5
20260506005916 48 257 3.0 11.0 0.00 1.06 1.06 92 1008.6
20260506005419 48 138 3.0 8.0 0.00 1.06 1.06 92 1008.7
20260506004917 48 57 4.0 9.0 0.00 1.06 1.06 91 1008.7
20260506004419 48 271 3.0 9.0 0.00 1.06 1.06 91 1008.7
20260506003853 49 80 3.0 10.0 0.00 1.06 1.06 91 1008.6
20260506003348 49 143 3.0 10.0 0.00 1.06 1.06 91 1008.7
20260506002845 49 113 4.0 11.0 0.00 1.06 1.06 91 1008.5
20260506002341 49 84 4.0 11.0 0.00 1.06 1.06 91 1008.6
20260506001839 49 76 4.0 12.0 0.00 1.06 1.06 91 1008.4
20260506001313 49 37 5.0 12.0 0.00 1.06 1.06 90 1008.3
20260506000809 49 26 5.0 12.0 0.00 1.06 1.06 90 1008.3
20260506000753 49 95 5.0 12.0 0.00 1.06 1.06 90 1008.3
20260506000243 49 21 5.0 12.0 0.00 1.06 1.06 91 1008.4
20260505235305 49 94 4.0 12.0 0.00 1.06 1.06 91 1008.2
20260505234729 49 56 4.0 9.0 0.00 1.06 1.06 90 1008.2
20260505234201 49 20 3.0 8.0 0.00 1.06 1.06 90 1008.2
20260505233639 50 41 3.0 11.0 0.00 1.06 1.06 90 1007.7
20260505233623 49 58 5.0 11.0 0.00 1.06 1.06 90 1007.9
20260505232633 49 296 6.0 11.0 0.00 1.06 1.06 90 1007.6
20260505232135 50 100 5.0 11.0 0.00 1.06 1.06 90 1007.5
20260505231632 50 94 3.0 9.0 0.00 1.06 1.06 90 1007.7
20260505231131 50 68 3.0 8.0 0.00 1.06 1.06 91 1007.7
20260505230628 50 82 3.0 8.0 0.00 1.06 1.06 91 1007.6
20260505230128 50 101 3.0 8.0 0.00 1.06 1.06 91 1007.4
20260505225626 50 145 3.0 8.0 0.00 1.06 1.06 91 1007.2
20260505225124 50 151 4.0 11.0 0.00 1.06 1.06 91 1007.2
20260505224601 50 50 6.0 16.0 0.00 1.06 1.06 90 1007.0
20260505224059 51 80 5.0 16.0 0.00 1.06 1.06 90 1006.8
20260505223601 51 106 4.0 12.0 0.00 1.06 1.06 90 1007.0
20260505223101 51 85 3.0 14.0 0.00 1.06 1.06 91 1007.1
20260505222534 51 186 5.0 14.0 0.00 1.06 1.06 91 1007.1
20260505222030 52 67 6.0 14.0 0.00 1.06 1.06 90 1006.9
20260505221525 52 68 4.0 14.0 0.00 1.06 1.06 90 1006.6
20260505221021 52 169 4.0 10.0 0.00 1.06 1.06 90 1006.6
20260505220457 52 53 4.0 13.0 0.00 1.06 1.06 90 1006.6
20260505215931 53 48 6.0 13.0 0.00 1.06 1.06 90 1006.8
20260505215428 53 70 7.0 14.0 0.00 1.06 1.06 89 1006.4
20260505214923 53 81 5.0 14.0 0.00 1.06 1.06 89 1006.3
20260505214354 53 188 4.0 12.0 0.00 1.06 1.06 89 1006.6
20260505213851 53 192 4.0 12.0 0.00 1.06 1.06 89 1006.8
20260505213324 53 62 4.0 12.0 0.00 1.06 1.06 89 1006.7
20260505212821 53 89 4.0 14.0 0.00 1.06 1.06 90 1006.7
20260505212258 53 26 6.0 14.0 0.00 1.06 1.06 90 1006.6
20260505212252 54 54 6.0 14.0 0.00 1.06 1.06 89 1006.4
20260505211226 54 347 4.0 11.0 0.00 1.06 1.06 90 1006.3
20260505210659 54 357 5.0 12.0 0.00 1.06 1.06 90 1006.4
20260505210157 54 65 5.0 12.0 0.00 1.06 1.06 90 1006.3
20260505210146 54 72 4.0 12.0 0.00 1.06 1.06 90 1006.3
20260505205144 55 131 4.0 12.0 0.00 1.06 1.06 90 1006.3
20260505204638 55 52 4.0 10.0 0.01 1.06 1.06 91 1006.4
20260505204135 55 49 4.0 11.0 0.01 1.06 1.06 91 1006.3
20260505203610 55 49 3.0 11.0 0.01 1.06 1.06 91 1006.1
20260505203107 55 111 2.0 8.0 0.01 1.06 1.06 91 1006.4
20260505202604 55 1 2.0 8.0 0.01 1.06 1.06 91 1006.4
20260505202101 55 86 3.0 8.0 0.01 1.06 1.06 92 1006.4
20260505201537 55 295 4.0 10.0 0.01 1.06 1.06 91 1006.4
20260505201010 55 159 5.0 11.0 0.01 1.06 1.06 91 1006.3
20260505200445 55 98 5.0 11.0 0.01 1.06 1.06 91 1006.1
20260505195939 56 103 4.0 11.0 0.01 1.06 1.06 92 1005.9
20260505195439 56 56 3.0 11.0 0.01 1.06 1.06 91 1006.3
20260505194916 56 70 3.0 8.0 0.00 1.05 1.05 91 1006.6
20260505194413 56 115 3.0 8.0 0.00 1.05 1.05 91 1006.5
20260505194357 56 64 2.0 13.0 0.00 1.05 1.05 91 1006.7
20260505193411 56 185 3.0 13.0 0.00 1.05 1.05 91 1006.5
20260505193339 56 34 6.0 13.0 0.00 1.05 1.05 91 1005.8
20260505192332 56 117 7.0 13.0 0.00 1.05 1.05 92 1005.5
20260505191834 56 21 5.0 12.0 0.00 1.05 1.05 92 1005.1
20260505191322 56 53 4.0 12.0 0.00 1.05 1.05 92 1005.7
20260505191317 57 114 4.0 11.0 0.00 1.05 1.05 92 1005.8
20260505190252 57 49 4.0 13.0 0.00 1.05 1.05 92 1005.7
20260505185729 57 91 4.0 13.0 0.01 1.05 1.05 92 1005.7
20260505185207 57 100 4.0 9.0 0.01 1.05 1.05 92 1006.0
20260505184705 57 34 5.0 13.0 0.01 1.05 1.05 91 1005.9
20260505184142 57 135 6.0 13.0 0.01 1.05 1.05 92 1005.7
20260505183641 57 23 6.0 14.0 0.01 1.05 1.05 92 1005.5
20260505183139 58 24 6.0 14.0 0.01 1.05 1.05 91 1005.4
20260505183126 58 101 4.0 11.0 0.01 1.05 1.05 91 1005.5
20260505182119 59 115 5.0 11.0 0.01 1.05 1.05 91 1005.4
20260505181616 59 108 5.0 11.0 0.01 1.05 1.05 91 1005.4
20260505181113 60 45 4.0 11.0 0.01 1.05 1.05 90 1005.4
20260505180614 61 116 3.0 9.0 0.01 1.05 1.05 89 1005.5
20260505180053 63 165 3.0 8.0 0.00 1.04 1.04 90 1005.0
20260505180039 63 165 3.0 8.0 0.00 1.04 1.04 91 1005.0
20260505175031 64 53 3.0 8.0 0.00 1.04 1.04 91 1004.9
20260505175014 64 6 2.0 7.0 0.00 1.04 1.04 91 1005.0
20260505174012 64 47 1.0 6.0 0.00 1.04 1.04 91 1005.1